COSMOS 951 DEB, 37236

Orbit data source: Space-Track

COSMOS 951 DEB, 37236 is space debris in LEO originally from a launch on Tue, 13 Sep 1977 UTC launched from the Plesetsk Missile And Space Complex (PKMTR). Debris objects in space refer to the collection of defunct objects orbiting the Earth. Examples of debris include non-operational satellites, rocket bodies, and fragments generated from explosions, collisions, or faulty payload assembly.

Loading next visibility...
Identifier
37236, 1977-087D
Orbit
LEO
Last TLE update
21 hours ago
Origin
Manufacturer
Polyot
Mission
Spacecraft
Bus & Motor
Unknown
Mass
Unknown
Launch date (UTC)
1977-09-13 (48 years ago)
Launch vehicle
Unknown
Launch site
Plesetsk Missile And Space Complex (PKMTR)
Object type
Payload
Rocket body
Debris
Shape & HBR
Unknown
Radar Cross Section
Small (<0.1 m²)

Expand to show TLE details & history

TLE from 21 hours ago
0 COSMOS 951 DEB
1 37236U 77087D   25191.63511271  .00000531  00000-0  49401-3 0  9994
2 37236  82.9677  48.1407 0033718 179.4056 236.3791 13.80114735399038
Epoch: 2025-07-10T15:14Z
TLE epoch observation values (Epoch: 2025-07-10T15:14:33.738Z)
Latitude
54.93944°
Longitude
-99.22771°
Altitude
986.336 km
Speed
7.357 km/s
True Right ascension
03h 52m 50s
True Declination
54° 46' 57"
Sunlit
Object was in daylight at epoch
Visualization orbit readout
Latitude
4.40453°
Longitude
-109.39684°
Altitude
990.464 km
Speed
7.344 km/s
Apparent Right ascension
05h 59m 11s
Apparent Declination
-33° 49' 05"
Sunlit
Object is in daylight
Visualization observer readout
Local Sidereal Time
00:10:36
Azimuth
118.653° SE
Elevation
-18.989°
Doppler factor
1
Orbital elements
Apogee altitude
985.365 km
Perigee altitude
935.876 km
Semi-major axis
7,338.758 km
Eccentricity
0.00337
Inclination
82.9677°
RAAN
48.1407°
Arg. of periapsis
179.4056°
True anomaly
Unknown
Mean anomaly
236.3791°
Eccentric anomaly
Unknown
Mean motion
3.45231 °/min
Orbital period
104.28 mins
BSTAR
0.00049401
Loading maneuver chart data...
Loading SW <> Apogee altitude chart data...
Loading historical data...
Loading historical data...
Loading historical data...
Loading historical data...
Loading historical data...
Loading historical data...
Loading historical data...
Other satellites on launch #87 in the year 1977 (1977-09-13 UTC)

COSMOS 951 DEB Visibility forecast

Observer location: undefined°, undefined°

Span
Click to sort rows by Start time (UTC) header in descending order
Start Az.
Max El. time (UTC)
Max El. Az.
Max El.
End time (UTC)
End Az.
6 mins2025-07-11 13:44:29.516Z113.019° SE2025-07-11 13:47:29.516Z80.901° E16.729°2025-07-11 13:50:29.516Z49.272° ENE
10 mins2025-07-11 15:27:29.516Z200.381° SSW2025-07-11 15:31:29.516Z258.642° W42.226°2025-07-11 15:37:29.516Z0.511° NNE
4 mins2025-07-12 00:39:29.516Z50.032° ENE2025-07-12 00:41:29.516Z70.949° E12.72°2025-07-12 00:43:29.516Z90.874° ESE
10 mins2025-07-12 02:22:29.516Z351.658° N2025-07-12 02:26:29.516Z335.142° NNW44.283°2025-07-12 02:32:29.516Z176.814° S
|